User: anonymous   Login
Location: Haliburton Scout Reserve
(45.0900°N, 78.3200°W)
Time: 20:17:44
(UTC-04:00)
Language:

IDEFIX/ARIANE 42P - Orbit

View from above orbital plane
View from above orbital plane
View from above satellite
View from above satellite

Ground track
Ground track

The orbit data is extracted from the following two-line orbital elements,

1 27422U 02021B   17175.58022810 -.00000026 +00000-0 +58597-5 0  9997
2 27422 098.2297 175.4489 0011522 209.3964 150.6573 14.29254873789622
Epoch (UTC): 24 June 2017 13:55:31
Eccentricity: 0.0011522
inclination: 98.2297°
perigee height: 786 km
apogee height: 802 km
right ascension of ascending node: 175.4489°
argument of perigee: 209.3964°
revolutions per day: 14.29254873
mean anomaly at epoch: 150.6573°
orbit number at epoch: 78962

The dashed part of the orbit path shows where the satellite is in the earth's shadow,  

DLR